BOX459 EDDF-KATL

Flight info

Callsign BOX459
Flight time N/A
Altitude 30000
Route OBOKA5S OBOKA Z28 DIBIR DCT BUDIP DCT RAVLO Y70 OTBED L60 PENIL M144 BAGSO DCT ULTAG DCT DOGAL/M084F320 DCT 55N020W 56N030W 55N040W 53N050W DCT RIKAL/N0488F320 N566A TUSKY/N0484F340 DCT BOS DCT BAF Q406 DBABE Q448 PTW J48 MOL DCT FLASK OZZZI2
Aircraft B77L/H-SDE1E2E3FGHIJ2J3J4J5M1RWXY/LB1D1

Departure

Time 2026-04-14 21:22
Airport Frankfurt Main Airport (EDDF)

Arrival

Time N/A
Airport Hartsfield Jackson Atlanta International Airport (KATL)
Time Latitude Longitude Altitude Speed Heading
2026-04-14 20:35 50.03716 8.53096 357 ft 0 kts 339°
2026-04-14 21:08 50.03707 8.53101 357 ft 3 kts 339°
2026-04-14 21:08 50.03682 8.53116 353 ft 3 kts 340°
2026-04-14 21:08 50.03665 8.53125 356 ft 3 kts 329°
2026-04-14 21:09 50.03655 8.53136 356 ft 3 kts 307°
2026-04-14 21:09 50.03646 8.53163 356 ft 3 kts 279°
2026-04-14 21:09 50.03645 8.53194 356 ft 3 kts 265°
2026-04-14 21:09 50.03648 8.53225 356 ft 3 kts 256°
2026-04-14 21:10 50.03653 8.53251 356 ft 2 kts 250°
2026-04-14 21:10 50.03654 8.53255 356 ft 3 kts 249°
2026-04-14 21:14 50.03653 8.53251 345 ft 2 kts 249°
2026-04-14 21:14 50.03638 8.53193 349 ft 8 kts 248°
2026-04-14 21:14 50.03619 8.53116 355 ft 8 kts 249°
2026-04-14 21:14 50.03601 8.53040 355 ft 8 kts 250°
2026-04-14 21:15 50.03582 8.52962 352 ft 8 kts 250°
2026-04-14 21:15 50.03564 8.52885 352 ft 8 kts 249°
2026-04-14 21:15 50.03545 8.52808 352 ft 8 kts 250°
2026-04-14 21:15 50.03527 8.52730 350 ft 8 kts 250°
2026-04-14 21:16 50.03511 8.52651 352 ft 8 kts 258°
2026-04-14 21:16 50.03506 8.52571 352 ft 8 kts 269°
2026-04-14 21:16 50.03500 8.52489 349 ft 8 kts 257°
2026-04-14 21:16 50.03486 8.52409 345 ft 8 kts 252°
2026-04-14 21:17 50.03467 8.52332 351 ft 8 kts 242°
2026-04-14 21:17 50.03415 8.52300 337 ft 9 kts 167°
2026-04-14 21:17 50.03398 8.52387 336 ft 9 kts 92°
2026-04-14 21:17 50.03398 8.52439 336 ft 0 kts 89°
2026-04-14 21:20 50.03398 8.52459 336 ft 5 kts 89°
2026-04-14 21:20 50.03399 8.52509 340 ft 5 kts 89°
2026-04-14 21:20 50.03399 8.52559 340 ft 5 kts 89°
2026-04-14 21:20 50.03376 8.52590 336 ft 5 kts 171°
2026-04-14 21:21 50.03316 8.52592 337 ft 20 kts 178°
2026-04-14 21:21 50.02983 8.52597 338 ft 83 kts 179°
2026-04-14 21:21 50.02171 8.52606 338 ft 149 kts 179°
2026-04-14 21:21 50.00951 8.52618 376 ft 195 kts 179°
2026-04-14 21:22 49.99608 8.52636 980 ft 193 kts 179°
2026-04-14 21:22 49.98241 8.52633 1579 ft 198 kts 178°
2026-04-14 21:22 49.96853 8.52666 2073 ft 202 kts 168°
2026-04-14 21:22 49.95600 8.53665 2172 ft 210 kts 124°
2026-04-14 21:23 49.95076 8.55780 2503 ft 215 kts 101°
2026-04-14 21:23 49.94739 8.58096 2896 ft 227 kts 103°
2026-04-14 21:23 49.94093 8.60413 3267 ft 238 kts 117°
2026-04-14 21:23 49.93624 8.62907 3579 ft 255 kts 87°
2026-04-14 21:24 49.93824 8.65679 4094 ft 257 kts 85°
2026-04-14 21:24 49.93966 8.68435 4848 ft 256 kts 80°
2026-04-14 21:24 49.94633 8.70965 5381 ft 262 kts 51°
2026-04-14 21:24 49.96027 8.72757 6077 ft 264 kts 27°
2026-04-14 21:25 49.97780 8.73643 6719 ft 265 kts 13°